Regional Weather Roundup
Issued by NWS

Home | Current Version | Previous Version | Text Only | Print | Product List | Glossary On
Versions: 1 2 3 4 5 6 7 8 9 10 11 12 13 14 15 16 17 18 19 20 21 22 23 24 25 26 27 28 29 30 31 32 33 34 35 36 37 38 39 40 41 42 43 44 45 46 47 48 49 50
000
ASUS43 KLMK 272110
RWRKY
KENTUCKY REGIONAL WEATHER ROUNDUP
NATIONAL WEATHER SERVICE LOUISVILLE KY
500 PM EDT WED AUG 27 2014

NOTE "FAIR" INDICATES FEW OR NO CLOUDS BELOW 12,000 FEET
WITH NO SIGNIFICANT WEATHER AND/OR OBSTRUCTIONS TO VISIBILITY.

KYZ001>023-026-027-061>063-070>075-272200-
WESTERN AND SOUTH CENTRAL KENTUCKY

CITY           SKY/WX    TMP DP  RH WIND       PRES   REMARKS
PADUCAH        MOSUNNY   96  71  44 NE6       30.03F HX 103
HENDERSON      SUNNY     91  72  52 CALM      30.03F HX  98
OWENSBORO      MOSUNNY   91  72  53 NE7       30.04F HX  98
HOPKINSVILLE   MOSUNNY   91  73  55 SE9       30.04F HX  98
BOWLING GREEN  MOSUNNY   89  72  56 SE7       30.05F HX  96
GLASGOW        SUNNY     89  70  52 SE6       30.05F HX  94
$$

KYZ024-025-028>034-038-045-046-053-272200-
NORTH CENTRAL KENTUCKY

CITY           SKY/WX    TMP DP  RH WIND       PRES   REMARKS
LOUISVILLE/SDF PTSUNNY   80  72  76 S12       30.03F
LOUISVILLE/LOU MOSUNNY   85  71  63 S8        30.03F HX  90
FORT KNOX      SUNNY     89  74  61 N5        30.05S HX  98
$$

KYZ035>037-039>044-047>052-055>060-089>105-272200-
NORTHEAST KENTUCKY

CITY           SKY/WX    TMP DP  RH WIND       PRES   REMARKS
LEXINGTON      MOSUNNY   91  69  48 CALM      30.06F HX  96
COVINGTON      MOSUNNY   90  69  50 W10       30.03F HX  94
FRANKFORT      MOSUNNY   89  72  56 VRB5      30.03F HX  96
$$

KYZ054-064>069-076>088-106>120-272200-
SOUTHEAST KENTUCKY

CITY           SKY/WX    TMP DP  RH WIND       PRES   REMARKS
JACKSON        MOSUNNY   84  68  58 CALM      30.09F
LONDON         SUNNY     86  66  51 NE7       30.09F
SOMERSET       PTSUNNY   84  64  51 E5        30.08F
MIDDLESBORO    SUNNY     87  62  42 CALM      30.08S
MONTICELLO     PTCLDY    88  71  56 N6        30.09F HX  93
$$




USA.gov is the U.S. government's official web portal to all federal, state and local government web resources and services.